DELTA 1 DEB, 10710

Orbit data source: Space-Track

DELTA 1 DEB, 10710 is space debris in LEO originally from a launch on Thu, 29 Jul 1976 UTC launched from the Air Force Western Test Range (AFWTR). Debris objects in space refer to the collection of defunct objects orbiting the Earth. Examples of debris include non-operational satellites, rocket bodies, and fragments generated from explosions, collisions, or faulty payload assembly.

Loading next visibility...
Identifier
10710, 1976-077AF
Orbit
LEO
Country
Flag of USUS
Related business
Manufacturer
Unknown
Mission
Spacecraft
Bus & Motor
Unknown
Mass
Unknown
Launch date (UTC)
1976-07-29 (49 years ago)
Launch vehicle
Unknown
Launch site
Air Force Western Test Range (AFWTR)
Object type
Payload
Rocket body
Debris
Shape & HBR
Unknown shape, 0.1 m
Radar Cross Section
Small (<0.1 m²)

Expand to show TLE details & history
Last TLE update: 7 hours ago

TLE from 7 hours ago
0 DELTA 1 DEB
1 10710U 76077AF  25308.00504058  .00000581  00000-0  70299-2 0  9999
2 10710 101.7682 120.8212 0255379  83.8367  68.4557 11.99201508125782
Epoch: 2025-11-04T00:07Z
TLE epoch observation values (Epoch: 2025-11-04T00:07:15.506Z)
Latitude
24.42102°
Longitude
-99.08997°
Altitude
1,616.023 km
Speed
7.096 km/s
True Right ascension
20h 24m 53s
True Declination
24° 18' 21"
Sunlit
Object was in daylight at epoch
Visualization orbit readout
Latitude
Unknown
Longitude
Unknown
Altitude
Unknown
Speed
Unknown
Apparent Right ascension
Unknown
Apparent Declination
Unknown
Sunlit
N/A
Visualization observer readout
Local Sidereal Time
03:04:10
Azimuth
Unknown
Elevation
Unknown
Doppler factor
Unknown
Orbital elements
Apogee altitude
1,887.89 km
Perigee altitude
1,476.21 km
Semi-major axis
8,060.187 km
Eccentricity
0.02554
Inclination
101.7682°
RAAN
120.8212°
Arg. of periapsis
83.8367°
True anomaly
71.20888°
Mean anomaly
68.4557°
Eccentric anomaly
69.82917°
Mean motion
2.99934 °/min
Orbital period
120.03 mins
BSTAR
0.0070299
Loading maneuver chart data...
Computing Atmospheric mass density...
Loading historical data...
Loading historical data...
Loading historical data...
Loading historical data...
Loading historical data...
Loading historical data...
Loading historical data...

Documentation

Showing up to 5 results
|